When you browse on this site, cookies collect data to enhance your experience and personalize the content and advertising you see.
Visit our Privacy Policy to learn more. By continuing to use the site, you agree to this use of cookies and data.
  • In Hungary
  • List of Countries
  • For 7 days
  • Water Temperature
  • Satellite Maps
  • Weather Map
  • News
  • Weather Widgets
  • user-avatar
    Login

    Hourly Weather San Marcos

    Today, 27 June, Thursday

    Time Temperature Precipitation Wind Pressure Humidity
    00:00 +25°C° 0 mm 2 mps 746 mmHg 97%
    01:00 +25°C° 0 mm 2 mps 745 mmHg 98%
    02:00 +25°C° 0 mm 2 mps 745 mmHg 98%
    03:00 +25°C° 0 mm 2 mps 745 mmHg 98%
    04:00 +25°C° 0 mm 2 mps 746 mmHg 98%
    05:00 +25°C° 0 mm 2 mps 746 mmHg 98%
    06:00 +27°C° 0 mm 3 mps 746 mmHg 88%
    07:00 +28°C° 0 mm 3 mps 747 mmHg 79%
    08:00 +30°C° 0 mm 4 mps 747 mmHg 70%
    09:00 +33°C° 0 mm 4 mps 747 mmHg 63%
    10:00 +34°C° 0 mm 4 mps 747 mmHg 55%
    11:00 +36°C° 0 mm 3 mps 747 mmHg 48%
    12:00 +36°C° 0 mm 4 mps 746 mmHg 47%
    13:00 +36°C° 0 mm 4 mps 746 mmHg 47%
    14:00 +36°C° 0 mm 5 mps 745 mmHg 46%
    15:00 +36°C° 0 mm 4 mps 745 mmHg 46%
    16:00 +36°C° 0 mm 4 mps 745 mmHg 45%
    17:00 +36°C° 0 mm 4 mps 745 mmHg 45%
    18:00 +34°C° 0 mm 4 mps 745 mmHg 53%
    19:00 +32°C° 0 mm 4 mps 745 mmHg 61%
    20:00 +29°C° 0 mm 4 mps 745 mmHg 68%
    21:00 +28°C° 0 mm 4 mps 745 mmHg 74%
    22:00 +27°C° 0 mm 3 mps 745 mmHg 79%
    23:00 +26°C° 0 mm 3 mps 746 mmHg 85%

    Tomorrow, 28 June, Friday

    Time Temperature Precipitation Wind Pressure Humidity
    00:00 +25°C° 0 mm 2 mps 746 mmHg 88%
    01:00 +25°C° 0 mm 2 mps 745 mmHg 92%
    02:00 +24°C° 0 mm 2 mps 745 mmHg 95%
    03:00 +24°C° 0 mm 1 mps 745 mmHg 96%
    04:00 +24°C° 0 mm 1 mps 745 mmHg 97%
    05:00 +24°C° 0 mm 1 mps 745 mmHg 97%
    06:00 +26°C° 0 mm 2 mps 746 mmHg 87%
    07:00 +28°C° 0 mm 2 mps 746 mmHg 76%
    08:00 +30°C° 0 mm 3 mps 746 mmHg 66%
    09:00 +33°C° 0 mm 3 mps 746 mmHg 57%
    10:00 +34°C° 0 mm 3 mps 746 mmHg 49%
    11:00 +36°C° 0 mm 3 mps 746 mmHg 40%
    12:00 +37°C° 0 mm 3 mps 746 mmHg 37%
    13:00 +37°C° 0 mm 3 mps 745 mmHg 34%
    14:00 +38°C° 0 mm 3 mps 745 mmHg 31%
    15:00 +38°C° 0 mm 3 mps 744 mmHg 33%
    16:00 +37°C° 0 mm 3 mps 744 mmHg 34%
    17:00 +37°C° 0 mm 3 mps 743 mmHg 35%
    18:00 +35°C° 0 mm 3 mps 743 mmHg 41%
    19:00 +33°C° 0 mm 3 mps 744 mmHg 46%
    20:00 +30°C° 0 mm 3 mps 744 mmHg 52%
    21:00 +29°C° 0 mm 3 mps 744 mmHg 57%
    22:00 +28°C° 0 mm 3 mps 744 mmHg 63%
    23:00 +27°C° 0 mm 2 mps 744 mmHg 68%

    Day after tomorrow, 29 June, Saturday

    Time Temperature Precipitation Wind Pressure Humidity
    00:00 +26°C° 0 mm 2 mps 744 mmHg 71%
    01:00 +26°C° 0 mm 2 mps 744 mmHg 74%
    02:00 +25°C° 0 mm 2 mps 744 mmHg 77%
    03:00 +25°C° 0 mm 2 mps 744 mmHg 80%
    04:00 +24°C° 0 mm 3 mps 744 mmHg 82%
    05:00 +24°C° 0 mm 3 mps 744 mmHg 85%
    06:00 +27°C° 0 mm 3 mps 744 mmHg 74%
    07:00 +29°C° 0 mm 3 mps 745 mmHg 63%
    08:00 +33°C° 0 mm 4 mps 745 mmHg 52%
    09:00 +34°C° 0 mm 3 mps 745 mmHg 46%
    10:00 +36°C° 0 mm 3 mps 745 mmHg 40%
    11:00 +37°C° 0 mm 3 mps 745 mmHg 34%
    12:00 +38°C° 0 mm 3 mps 744 mmHg 32%
    13:00 +38°C° 0 mm 2 mps 743 mmHg 30%
    14:00 +38°C° 0 mm 2 mps 743 mmHg 29%
    15:00 +38°C° 0 mm 2 mps 742 mmHg 30%
    16:00 +37°C° 0 mm 2 mps 742 mmHg 32%
    17:00 +37°C° 0 mm 2 mps 742 mmHg 34%
    18:00 +34°C° 0 mm 2 mps 742 mmHg 39%
    19:00 +31°C° 0 mm 2 mps 742 mmHg 44%
    20:00 +29°C° 0 mm 2 mps 742 mmHg 49%
    21:00 +28°C° 0.2 mm 3 mps 743 mmHg 59%
    22:00 +27°C° 0.2 mm 4 mps 743 mmHg 69%
    23:00 +25°C° 0.2 mm 5 mps 743 mmHg 79%

    30 June, Sunday

    Time Temperature Precipitation Wind Pressure Humidity
    00:00 +25°C° 0.2 mm 4 mps 743 mmHg 82%
    01:00 +23°C° 0.2 mm 4 mps 743 mmHg 86%
    02:00 +24°C° 0.2 mm 3 mps 743 mmHg 90%
    03:00 +24°C° 0.6 mm 2 mps 744 mmHg 90%
    04:00 +23°C° 0.6 mm 2 mps 744 mmHg 90%
    05:00 +23°C° 0.6 mm 1 mps 744 mmHg 89%
    06:00 +24°C° 0.1 mm 1 mps 744 mmHg 86%
    07:00 +24°C° 0.1 mm 2 mps 744 mmHg 83%
    08:00 +24°C° 0.1 mm 2 mps 744 mmHg 80%
    09:00 +26°C° 0 mm 3 mps 744 mmHg 70%
    10:00 +29°C° 0 mm 3 mps 744 mmHg 60%
    11:00 +31°C° 0 mm 3 mps 744 mmHg 50%
    12:00 +33°C° 0 mm 3 mps 744 mmHg 46%
    13:00 +34°C° 0 mm 3 mps 743 mmHg 41%
    14:00 +36°C° 0 mm 3 mps 743 mmHg 37%
    15:00 +35°C° 0 mm 3 mps 743 mmHg 38%
    16:00 +35°C° 0 mm 3 mps 742 mmHg 40%
    17:00 +35°C° 0 mm 3 mps 742 mmHg 41%
    18:00 +33°C° 0.1 mm 3 mps 742 mmHg 49%
    19:00 +30°C° 0.1 mm 3 mps 743 mmHg 58%
    20:00 +28°C° 0.1 mm 3 mps 743 mmHg 66%
    21:00 +27°C° 0 mm 3 mps 743 mmHg 71%
    22:00 +26°C° 0 mm 3 mps 743 mmHg 76%
    23:00 +25°C° 0 mm 4 mps 743 mmHg 81%

    1 July, Monday

    Time Temperature Precipitation Wind Pressure Humidity
    00:00 +25°C° 0 mm 3 mps 743 mmHg 84%
    01:00 +24°C° 0 mm 3 mps 743 mmHg 87%
    02:00 +24°C° 0 mm 3 mps 743 mmHg 89%
    03:00 +22°C° 0 mm 3 mps 743 mmHg 91%
    04:00 +23°C° 0 mm 2 mps 744 mmHg 92%
    05:00 +23°C° 0 mm 2 mps 744 mmHg 93%
    06:00 +25°C° 0 mm 2 mps 744 mmHg 83%
    07:00 +27°C° 0 mm 3 mps 744 mmHg 74%
    08:00 +29°C° 0 mm 3 mps 745 mmHg 65%
    09:00 +32°C° 0 mm 4 mps 744 mmHg 57%
    10:00 +34°C° 0 mm 4 mps 744 mmHg 49%
    11:00 +35°C° 0 mm 4 mps 744 mmHg 40%
    12:00 +36°C° 0 mm 4 mps 743 mmHg 37%
    13:00 +37°C° 0 mm 5 mps 743 mmHg 34%
    14:00 +39°C° 0 mm 5 mps 742 mmHg 31%
    15:00 +37°C° 0 mm 5 mps 742 mmHg 34%
    16:00 +36°C° 0 mm 5 mps 742 mmHg 38%
    17:00 +36°C° 0 mm 5 mps 742 mmHg 41%
    18:00 +34°C° 0 mm 5 mps 742 mmHg 50%
    19:00 +32°C° 0 mm 5 mps 742 mmHg 60%
    20:00 +29°C° 0 mm 5 mps 743 mmHg 69%
    21:00 +28°C° 0 mm 5 mps 743 mmHg 74%
    22:00 +27°C° 0 mm 4 mps 743 mmHg 78%
    23:00 +27°C° 0 mm 4 mps 743 mmHg 82%

    2 July, Tuesday

    Time Temperature Precipitation Wind Pressure Humidity
    00:00 +26°C° 0 mm 3 mps 743 mmHg 85%
    01:00 +26°C° 0 mm 3 mps 743 mmHg 88%
    02:00 +25°C° 0 mm 3 mps 743 mmHg 90%
    03:00 +25°C° 0 mm 2 mps 743 mmHg 92%
    04:00 +25°C° 0 mm 2 mps 743 mmHg 93%
    05:00 +25°C° 0 mm 1 mps 743 mmHg 95%
    06:00 +27°C° 0 mm 2 mps 743 mmHg 84%
    07:00 +28°C° 0 mm 3 mps 743 mmHg 74%
    08:00 +30°C° 0 mm 4 mps 744 mmHg 64%
    09:00 +33°C° 0 mm 4 mps 743 mmHg 57%
    10:00 +34°C° 0 mm 4 mps 743 mmHg 50%
    11:00 +36°C° 0 mm 5 mps 743 mmHg 42%
    12:00 +35°C° 0.2 mm 6 mps 743 mmHg 49%
    13:00 +33°C° 0.2 mm 7 mps 742 mmHg 56%
    14:00 +32°C° 0.2 mm 8 mps 742 mmHg 62%
    15:00 +31°C° 0.7 mm 8 mps 741 mmHg 65%
    16:00 +29°C° 0.7 mm 7 mps 741 mmHg 68%
    17:00 +29°C° 0.7 mm 7 mps 741 mmHg 71%
    18:00 +28°C° 0.1 mm 6 mps 741 mmHg 76%
    19:00 +27°C° 0.1 mm 6 mps 741 mmHg 80%
    20:00 +26°C° 0.1 mm 5 mps 741 mmHg 85%
    21:00 +26°C° 0 mm 5 mps 741 mmHg 86%
    22:00 +25°C° 0 mm 4 mps 742 mmHg 87%
    23:00 +25°C° 0 mm 4 mps 742 mmHg 87%
    Show more